User: anonymous   Login
Location: Unspecified
(0.0000°N, 0.0000°E)
Time: 05:49:28
(UTC+00:00)
Language:

STARLINK-35611 - Orbit

View from above orbital plane
View from above orbital plane
View from above satellite
View from above satellite

Ground track
Ground track

The orbit is defined by the following mean orbital elements,

1 66427U          26145.46599294 +.00000000 +00000-0 +32532-3 0 00002
2 66427  43.0047 200.7225 0001093 279.2916  80.7812 15.27587551    04
Epoch (UTC): 25 May 2026 11:11:01
Eccentricity: 0.0001093
inclination: 43.0047°
perigee height: 482 km
apogee height: 484 km
right ascension of ascending node: 200.7225°
argument of perigee: 279.2916°
revolutions per day: 15.27587551
mean anomaly at epoch: 80.7812°

The dashed part of the orbit path shows where the satellite is in the earth's shadow,  

DLR